Flag for South Africa Weather past 2 weeks in East London, South Africa

Now
57 °F

Clear.


Feels Like: 56 °F
Forecast: 60 / 81 °F
Wind: 6 mph from Southwest

Location: Port Elizabeth Airport

Current Time: Dec 23, 2014 at 2:55:57 AM

Latest Report: Dec 23, 2014 at 2:00 AM


Visibility: 10 mi

Pressure: 29.92 "Hg

Humidity: 88%

Dew point: 54 °F

Location of East LondonLocation

Historic Weather in East London — Graph

°F

East London temperature yesterday

Maximum temperature yesterday: 77 °F (at 2:00 PM)
Minimum temperature yesterday: 64 °F (at 5:00 AM)
Average temperature yesterday: 69 °F

Past Weeks' High & Low Weather Summary

 TemperatureHumidityPressure
High79 °F (Dec 17, 2:00 PM)94% (Dec 9, 1:00 AM)30.15 "Hg (Dec 9, 1:00 AM)
Low54 °F (Dec 14, 4:01 AM)45% (Dec 17, 2:00 PM)29.74 "Hg (Dec 9, 4:00 AM)
Average67 °F74%29.97 "Hg
* Reported Dec 8 1:00 AM — Dec 23 1:00 AM, East London, Weather by CustomWeather, © 2014

Note: Actual official high and low records may vary slightly from our data, if they occured in-between our weather recording intervals... More about our weather records

Advertising

East London weather history for previous 24 hours

 ConditionsComfort  
Time TempWeatherWind HumidityBarometerVisibility
1:00 AM
Dec 23
61 °FClear.2 mph88%29.92 "Hg10 mi
12:00 AM61 °FClear.2 mph88%29.92 "Hg10 mi
11:00 PM
Dec 22
66 °FClear.3 mph78%29.95 "Hg10 mi
10:00 PM66 °FClear.8 mph83%29.95 "Hg10 mi
9:00 PM68 °FClear.12 mph78%29.95 "Hg10 mi
8:00 PM68 °FClear.13 mph78%29.92 "Hg10 mi
7:00 PM70 °FPassing clouds.13 mph73%29.92 "HgN/A
6:00 PM70 °FScattered clouds.14 mph73%29.95 "HgN/A
5:00 PM72 °FPartly sunny.14 mph69%29.95 "HgN/A
4:00 PM73 °FPassing clouds.13 mph65%29.95 "HgN/A
3:00 PM75 °FPassing clouds.12 mph61%29.98 "HgN/A
2:00 PM77 °FScattered clouds.9 mph54%29.98 "HgN/A
1:00 PM73 °FScattered clouds.12 mph65%30.01 "HgN/A
12:00 PM73 °FScattered clouds.10 mph61%30.01 "HgN/A
11:00 AM73 °FScattered clouds.10 mph65%30.04 "HgN/A
10:00 AM72 °FPartly sunny.12 mph69%30.04 "HgN/A
9:00 AM72 °FScattered clouds.15 mph65%30.04 "HgN/A
8:00 AM70 °FBroken clouds.12 mph69%30.04 "HgN/A
7:00 AM64 °FPartly sunny.3 mph88%30.04 "HgN/A
6:00 AM66 °FPartly sunny.10 mph78%30.01 "HgN/A
5:00 AM64 °FPartly sunny.7 mph83%30.01 "HgN/A
4:00 AM66 °FPassing clouds.15 mph78%29.98 "HgN/A
3:00 AM66 °FPassing clouds.15 mph78%29.98 "HgN/A
Weather by CustomWeather, © 2014

See weather overviewHow to use our weather pages